Hoehne, CO

9:38 AM MST on January 20, 2017 (GMT -0700)
Trinidad

Weather History for KTAD - March, 2012

Change the Weather History Date:

Wednesday, March 14, 2012

  Actual Average Record
Temperature  
Mean Temperature 51 °F 42 °F  
Max Temperature 74 °F 57 °F 75 °F (2003)
Min Temperature 28 °F 26 °F 5 °F (1969)
Degree Days  
Heating Degree Days 14 23  
Month to date heating degree days 303 347  
Since 1 July heating degree days 4079 4469  
Cooling Degree Days 0 0  
Month to date cooling degree days 0 0  
Year to date cooling degree days 0 0  
Moisture  
Dew Point 3 °F    
Average Humidity 23    
Maximum Humidity 42    
Minimum Humidity 4    
Precipitation  
Precipitation 0.00 in 0.03 in 0.31 in (2005)
Month to date precipitation 0.22  
Snow  
Snow 0.00 in - - ()
Month to date snowfall 0.0  
Snow Depth 0.00 in    
Sea Level Pressure  
Sea Level Pressure 29.88 in    
Wind  
Wind Speed 9 mph (West)    
Max Wind Speed 18 mph    
Max Gust Speed 22 mph    
Visibility 10 miles    
Events      
T = Trace of Precipitation, MM = Missing Value Source: NWS Daily Summary

Daily Weather History Graph

Daily Weather History Graph

Search for Another Location

Airport or City:

Trip Planner

Search our weather history database for the weather conditions in past years. The results will help you decide how hot, cold, wet, or windy it might be!

Date:

Astronomy

Mar. 14, 2012 Rise Set
Actual Time 7:09 AM MDT 7:04 PM MDT
Civil Twilight 6:43 AM MDT 7:30 PM MDT
Nautical Twilight 6:12 AM MDT 8:00 PM MDT
Astronomical Twilight 5:42 AM MDT 8:31 PM MDT
Moon 1:33 AM MDT (3/14) 11:31 AM MDT (3/14)
Length of Visible Light 12h 47m
Length of Day
11h 55m
Waning Gibbous, 54% of the Moon is Illuminated
Mar 14
Waning Gibbous
Mar 14
Last Quarter
Mar 22
New
Mar 30
First Quarter
Apr 6
Full

Hourly Weather History & Observations

Time (MDT) Temp. Windchill Dew Point Humidity Pressure Visibility Wind Dir Wind Speed Gust Speed Precip Events Conditions
12:54 AM 46.0 °F 39.0 °F 3.9 °F 18% 29.82 in 10.0 mi SW 17.3 mph - N/A   Clear
1:54 AM 41.0 °F 35.2 °F 7.0 °F 25% 29.83 in 10.0 mi WSW 9.2 mph - N/A   Clear
2:54 AM 39.9 °F 33.9 °F 7.0 °F 26% 29.82 in 10.0 mi WSW 9.2 mph - N/A   Clear
3:54 AM 37.9 °F 31.5 °F 6.1 °F 27% 29.83 in - NW 9.2 mph - N/A   Clear
4:54 AM 33.1 °F 26.9 °F 7.0 °F 34% 29.87 in - NW 6.9 mph - N/A   Clear
5:54 AM 30.0 °F 22.4 °F 9.0 °F 41% 29.91 in - NW 8.1 mph - N/A   Clear
6:54 AM 28.9 °F 21.1 °F 9.0 °F 43% 29.96 in - WNW 8.1 mph - N/A   Clear
7:54 AM 33.1 °F 25.5 °F 12.9 °F 43% 29.98 in - WNW 9.2 mph - N/A   Clear
8:54 AM 51.1 °F - 12.0 °F 21% 29.94 in - West 8.1 mph - N/A   Clear
9:54 AM 57.9 °F - 10.0 °F 15% 29.93 in - Calm Calm - N/A   Clear
10:54 AM 64.0 °F - 1.0 °F 8% 29.92 in - SE 3.5 mph - N/A   Clear
11:54 AM 70.0 °F - -0.0 °F 6% 29.86 in 10.0 mi ESE 5.8 mph - N/A   Clear
12:54 PM 71.1 °F - -5.1 °F 5% 29.87 in 10.0 mi SE 3.5 mph - N/A   Clear
1:54 PM 72.0 °F - -7.1 °F 4% 29.86 in 10.0 mi Variable 5.8 mph - N/A   Clear
2:54 PM 72.0 °F - -8.0 °F 4% 29.83 in 10.0 mi NE 8.1 mph 18.4 mph N/A   Clear
3:54 PM 73.0 °F - -6.0 °F 4% 29.81 in 10.0 mi Variable 4.6 mph 17.3 mph N/A   Clear
4:54 PM 72.0 °F - -5.1 °F 5% 29.83 in 10.0 mi Variable 3.5 mph - N/A   Clear
5:54 PM 71.1 °F - -0.9 °F 6% 29.84 in 10.0 mi West 13.8 mph - N/A   Clear
6:54 PM 63.0 °F - 1.0 °F 8% 29.90 in 10.0 mi WSW 9.2 mph - N/A   Clear
7:54 PM 54.0 °F - 1.0 °F 12% 29.93 in 10.0 mi West 9.2 mph - N/A   Clear
8:54 PM 53.1 °F - 1.0 °F 12% 29.89 in 10.0 mi West 12.7 mph - N/A   Clear
9:54 PM 51.1 °F - 5.0 °F 15% 29.89 in 10.0 mi West 15.0 mph - N/A   Clear
10:54 PM 48.0 °F - 5.0 °F 17% 29.89 in 10.0 mi West 16.1 mph - N/A   Clear
11:54 PM 46.0 °F 39.9 °F 6.1 °F 20% 29.90 in 10.0 mi West 13.8 mph - N/A   Clear